This is the latest recevied weather packets stored in our database for station/object EA2AFZ-W. If no packets are shown the sender has not sent any weather packets the latest 10 day(s).
| Time | Temp. | Humidity | Pressure | Rain* | Wind** | Luminosity | Snow |
|---|---|---|---|---|---|---|---|
| 1777605308 | 14.44° C | 73% | 1019 hPa | 0 mm | - | - | - |
| 1777603566 | 14.44° C | 73% | 1019 hPa | 0 mm | - | - | - |
| 1777601763 | 14.44° C | 72% | 1019 hPa | 0 mm | - | - | - |
| 1777599960 | 14.44° C | 75% | 1020 hPa | 0 mm | - | - | - |
| 1777598157 | 14.44° C | 74% | 1020 hPa | 0 mm | - | - | - |
| 1777596355 | 14.44° C | 75% | 1020 hPa | 0 mm | - | - | - |
| 1777594553 | 14.44° C | 75% | 1020 hPa | 0 mm | - | - | - |
| 1777592750 | 14.44° C | 77% | 1020 hPa | 0 mm | - | - | - |
| 1777590947 | 15° C | 82% | 1020 hPa | 0 mm | - | - | - |
| 1777589144 | 15.56° C | 94% | 1020 hPa | 0 mm | - | - | - |
| 1777587341 | 15.56° C | 94% | 1020 hPa | 0 mm | - | - | - |
| 1777585540 | 15.56° C | 94% | 1020 hPa | 0 mm | - | - | - |
| 1777583736 | 16.67° C | 88% | 1020 hPa | 0 mm | - | - | - |
| 1777581933 | 16.67° C | 83% | 1020 hPa | 0 mm | - | - | - |
| 1777580130 | 16.67° C | 80% | 1020 hPa | 0 mm | - | - | - |
| 1777578328 | 16.67° C | 75% | 1020 hPa | 0 mm | - | - | - |
| 1777576525 | 17.22° C | 67% | 1019 hPa | 0 mm | - | - | - |
| 1777574723 | 18.89° C | 61% | 1019 hPa | 0 mm | - | - | - |
| 1777572921 | 19.44° C | 54% | 1018 hPa | 0 mm | - | - | - |
| 1777571117 | 20° C | 49% | 1018 hPa | 0 mm | - | - | - |
| 1777569315 | 20.56° C | 49% | 1017 hPa | 0 mm | - | - | - |
| 1777567513 | 20.56° C | 49% | 1017 hPa | 0 mm | - | - | - |
| 1777565710 | 21.11° C | 49% | 1017 hPa | 0 mm | - | - | - |
| 1777563907 | 21.11° C | 51% | 1017 hPa | 0 mm | - | - | - |
| 1777562165 | 21.11° C | 51% | 1016 hPa | 0 mm | - | - | - |
* Rain latest hour (hover to see other rain measurements)
** Current wind speed in m/s (hover to see current wind gust speed)